This is the latest recevied weather packets stored in our database for station/object NC4J. If no packets are shown the sender has not sent any weather packets the latest 10 day(s).
| Time | Temp. | Humidity | Pressure | Rain* | Wind** | Luminosity | Snow |
|---|---|---|---|---|---|---|---|
| 1777630218 | 9.44° C | 74% | 1015 hPa | 0 mm | - | 0 W/m² | - |
| 1777629917 | 9.44° C | 72% | 1014.8 hPa | 0 mm | - | 0 W/m² | - |
| 1777629614 | 10° C | 72% | 1015 hPa | 0 mm | - | 0 W/m² | - |
| 1777629310 | 10° C | 71% | 1015 hPa | 0 mm | - | 0 W/m² | - |
| 1777629006 | 10° C | 70% | 1015 hPa | 0 mm | - | 0 W/m² | - |
| 1777628703 | 10° C | 70% | 1014.8 hPa | 0 mm | - | 0 W/m² | - |
| 1777628399 | 10° C | 70% | 1014.8 hPa | 0 mm | - | 0 W/m² | - |
| 1777628095 | 10° C | 72% | 1015 hPa | 0 mm | - | 0 W/m² | - |
| 1777627791 | 10° C | 71% | 1014.9 hPa | 0 mm | - | 0 W/m² | - |
| 1777627489 | 10° C | 71% | 1014.6 hPa | 0 mm | - | 0 W/m² | - |
| 1777627185 | 10° C | 70% | 1014.7 hPa | 0 mm | - | 0 W/m² | - |
| 1777626883 | 10° C | 72% | 1014.8 hPa | 0 mm | - | 0 W/m² | - |
| 1777626579 | 10.56° C | 70% | 1014.9 hPa | 0 mm | - | 0 W/m² | - |
| 1777626279 | 10.56° C | 69% | 1014.6 hPa | 0 mm | - | 0 W/m² | - |
| 1777625978 | 10.56° C | 69% | 1014.8 hPa | 0 mm | - | 0 W/m² | - |
| 1777625674 | 10.56° C | 65% | 1014.7 hPa | 0 mm | - | 0 W/m² | - |
| 1777625369 | 10.56° C | 63% | 1014.5 hPa | 0 mm | - | 0 W/m² | - |
| 1777625066 | 10.56° C | 64% | 1014.2 hPa | 0 mm | - | 0 W/m² | - |
| 1777624762 | 10.56° C | 58% | 1014.5 hPa | 0 mm | - | 0 W/m² | - |
| 1777624458 | 10.56° C | 64% | 1014.2 hPa | 0 mm | - | 0 W/m² | - |
| 1777624156 | 10.56° C | 59% | 1014.4 hPa | 0 mm | - | 0 W/m² | - |
| 1777623852 | 10.56° C | 68% | 1014.2 hPa | 0 mm | - | 0 W/m² | - |
| 1777623549 | 10.56° C | 60% | 1014.2 hPa | 0 mm | - | 0 W/m² | - |
| 1777623247 | 10.56° C | 67% | 1014.4 hPa | 0 mm | - | 0 W/m² | - |
| 1777622943 | 10.56° C | 66% | 1014.4 hPa | 0 mm | - | 0 W/m² | - |
* Rain latest hour (hover to see other rain measurements)
** Current wind speed in m/s (hover to see current wind gust speed)